Two Harbors, MN

7:26 AM CDT on June 26, 2017 (GMT -0500)
Helgeson

Weather History for KTWM - April, 2013

Change the Weather History Date:

Monday, April 1, 2013

  Actual Average Record
Temperature  
Mean Temperature 24 °F -  
Max Temperature 33 °F 41 °F 63 °F (1955)
Min Temperature 15 °F 26 °F -15 °F (1975)
Degree Days  
Heating Degree Days 41    
Moisture  
Dew Point 6 °F    
Average Humidity 48    
Maximum Humidity 74    
Minimum Humidity 30    
Precipitation  
Precipitation 0.00 in - - ()
Sea Level Pressure  
Sea Level Pressure 30.06 in    
Wind  
Wind Speed 7 mph (WNW)    
Max Wind Speed 15 mph    
Max Gust Speed 26 mph    
Visibility 10 miles    
Events Snow    
Averages and records for this station are not official NWS values.
T = Trace of Precipitation, MM = Missing Value Source: NWS Daily Summary

Daily Weather History Graph

Daily Weather History Graph

Search for Another Location

Airport or City:

Trip Planner

Search our weather history database for the weather conditions in past years. The results will help you decide how hot, cold, wet, or windy it might be!

Date:

Astronomy

Apr. 01, 2013 Rise Set
Actual Time 6:45 AM CDT 7:36 PM CDT
Civil Twilight 6:14 AM CDT 8:07 PM CDT
Nautical Twilight 5:37 AM CDT 8:44 PM CDT
Astronomical Twilight 4:59 AM CDT 9:23 PM CDT
Moon 1:02 AM CDT (4/1) 10:15 AM CDT (4/1)
Length of Visible Light 13h 53m
Length of Day
12h 51m
Waning Gibbous, 67% of the Moon is Illuminated
Apr 1
Waning Gibbous
Apr 2
Last Quarter
Apr 10
New
Apr 18
First Quarter
Apr 25
Full

Hourly Weather History & Observations

Time (CDT) Temp. Windchill Dew Point Humidity Pressure Visibility Wind Dir Wind Speed Gust Speed Precip Events Conditions
12:12 AM 21.2 °F 13.6 °F 6.8 °F 54% 29.97 in 10.0 mi NW 5.8 mph - N/A   Overcast
12:31 AM 21.2 °F 13.6 °F 5.0 °F 50% 29.97 in 10.0 mi NNW 5.8 mph - N/A   Mostly Cloudy
12:51 AM 21.2 °F 14.9 °F 3.2 °F 46% 29.98 in 10.0 mi NNW 4.6 mph 16.1 mph N/A   Mostly Cloudy
1:12 AM 21.2 °F 14.9 °F 3.2 °F 46% 29.98 in 10.0 mi NNW 4.6 mph - N/A   Mostly Cloudy
1:31 AM 21.2 °F 11.7 °F 3.2 °F 46% 29.99 in 10.0 mi NW 8.1 mph - N/A   Overcast
1:51 AM 21.2 °F 13.6 °F 5.0 °F 50% 29.99 in 10.0 mi NW 5.8 mph - N/A   Overcast
2:12 AM 21.2 °F - 5.0 °F 50% 29.99 in 10.0 mi Calm Calm - N/A   Overcast
2:31 AM 21.2 °F 14.9 °F 5.0 °F 50% 30.00 in 10.0 mi NNW 4.6 mph - N/A   Overcast
2:51 AM 21.2 °F 12.6 °F 6.8 °F 54% 30.00 in 10.0 mi WNW 6.9 mph - N/A   Overcast
3:12 AM 21.2 °F 12.6 °F 10.4 °F 63% 30.01 in 7.0 mi WNW 6.9 mph - N/A Snow Light Snow
3:31 AM 19.4 °F 14.3 °F 12.2 °F 74% 30.01 in 3.0 mi WNW 3.5 mph - N/A   Haze
3:51 AM 19.4 °F 10.4 °F 10.4 °F 68% 30.01 in 10.0 mi West 6.9 mph - N/A   Overcast
4:12 AM 19.4 °F 11.5 °F 8.6 °F 63% 30.02 in 10.0 mi WNW 5.8 mph 19.6 mph N/A   Overcast
4:31 AM 19.4 °F 10.4 °F 8.6 °F 63% 30.02 in 10.0 mi WNW 6.9 mph - N/A   Overcast
4:51 AM 19.4 °F 10.4 °F 8.6 °F 63% 30.02 in 10.0 mi WNW 6.9 mph - N/A   Overcast
5:11 AM 17.6 °F 9.3 °F 6.8 °F 63% 30.02 in 10.0 mi NW 5.8 mph - N/A   Scattered Clouds
5:31 AM 17.6 °F 9.3 °F 6.8 °F 63% 30.03 in 10.0 mi WNW 5.8 mph - N/A   Scattered Clouds
5:51 AM 17.6 °F 9.3 °F 6.8 °F 63% 30.04 in 10.0 mi West 5.8 mph - N/A   Scattered Clouds
6:11 AM 15.8 °F 7.2 °F 6.8 °F 68% 30.04 in 10.0 mi WNW 5.8 mph - N/A   Clear
6:31 AM 15.8 °F 8.6 °F 5.0 °F 62% 30.05 in 10.0 mi WNW 4.6 mph - N/A   Clear
6:52 AM 15.8 °F 8.6 °F 5.0 °F 62% 30.06 in 10.0 mi WNW 4.6 mph - N/A   Clear
7:11 AM 15.8 °F 7.2 °F 5.0 °F 62% 30.07 in 10.0 mi WNW 5.8 mph - N/A   Clear
7:31 AM 15.8 °F 7.2 °F 5.0 °F 62% 30.08 in 10.0 mi WNW 5.8 mph - N/A   Clear
7:52 AM 15.8 °F 7.2 °F 5.0 °F 62% 30.08 in 10.0 mi WNW 5.8 mph - N/A   Clear
8:11 AM 17.6 °F 5.7 °F 5.0 °F 58% 30.09 in 10.0 mi West 10.4 mph 16.1 mph N/A   Clear
8:31 AM 17.6 °F 9.3 °F 5.0 °F 58% 30.09 in 10.0 mi WNW 5.8 mph - N/A   Clear
8:52 AM 17.6 °F 5.7 °F 5.0 °F 58% 30.09 in 10.0 mi WNW 10.4 mph 17.3 mph N/A   Clear
9:11 AM 17.6 °F 6.4 °F 3.2 °F 53% 30.09 in 10.0 mi NW 9.2 mph 16.1 mph N/A   Clear
9:31 AM 19.4 °F 7.9 °F 3.2 °F 49% 30.09 in 10.0 mi NW 10.4 mph 18.4 mph N/A   Clear
9:52 AM 21.2 °F 10.1 °F 5.0 °F 50% 30.10 in 10.0 mi WNW 10.4 mph 16.1 mph N/A   Clear
10:11 AM 21.2 °F 10.9 °F 5.0 °F 50% 30.11 in 10.0 mi NW 9.2 mph 17.3 mph N/A   Clear
10:31 AM 21.2 °F 10.1 °F 5.0 °F 50% 30.11 in 10.0 mi West 10.4 mph 19.6 mph N/A   Clear
10:52 AM 23.0 °F 13.1 °F 5.0 °F 46% 30.11 in 10.0 mi WNW 9.2 mph 17.3 mph N/A   Clear
11:11 AM 23.0 °F 11.1 °F 3.2 °F 43% 30.11 in 10.0 mi NW 12.7 mph 18.4 mph N/A   Clear
11:32 AM 24.8 °F 15.3 °F 5.0 °F 43% 30.11 in 10.0 mi WNW 9.2 mph - N/A   Clear
11:51 AM 24.8 °F 13.4 °F 3.2 °F 40% 30.11 in 10.0 mi WNW 12.7 mph 20.7 mph N/A   Clear
12:11 PM 24.8 °F 15.3 °F 3.2 °F 40% 30.10 in 10.0 mi WNW 9.2 mph 21.9 mph N/A   Clear
12:31 PM 26.6 °F 16.8 °F 5.0 °F 40% 30.10 in 10.0 mi NW 10.4 mph 18.4 mph N/A   Clear
12:51 PM 26.6 °F 16.2 °F 6.8 °F 43% 30.10 in 10.0 mi WNW 11.5 mph 21.9 mph N/A   Clear
1:11 PM 26.6 °F 17.5 °F 5.0 °F 40% 30.09 in 10.0 mi WNW 9.2 mph 20.7 mph N/A   Clear
1:31 PM 26.6 °F 15.2 °F 5.0 °F 40% 30.09 in 10.0 mi WNW 13.8 mph 25.3 mph N/A   Clear
1:51 PM 28.4 °F 18.0 °F 6.8 °F 40% 30.08 in 10.0 mi WNW 12.7 mph 21.9 mph N/A   Clear
2:11 PM 28.4 °F 18.5 °F 5.0 °F 37% 30.08 in 10.0 mi WNW 11.5 mph 24.2 mph N/A   Clear
2:31 PM 30.2 °F 20.8 °F 6.8 °F 37% 30.07 in 10.0 mi WNW 11.5 mph 19.6 mph N/A   Clear
2:51 PM 30.2 °F 21.3 °F 6.8 °F 37% 30.07 in 10.0 mi WNW 10.4 mph 26.5 mph N/A   Clear
3:11 PM 30.2 °F 21.3 °F 6.8 °F 37% 30.07 in 10.0 mi WNW 10.4 mph 23.0 mph N/A   Clear
3:31 PM 32.0 °F 22.5 °F 6.8 °F 35% 30.07 in 10.0 mi WNW 12.7 mph 18.4 mph N/A   Clear
3:51 PM 32.0 °F 22.1 °F 6.8 °F 35% 30.06 in 10.0 mi West 13.8 mph 21.9 mph N/A   Clear
4:11 PM 32.0 °F 24.8 °F 6.8 °F 35% 30.06 in 10.0 mi NW 8.1 mph 20.7 mph N/A   Clear
4:31 PM 33.8 °F 26.4 °F 6.8 °F 32% 30.05 in 10.0 mi WNW 9.2 mph 23.0 mph N/A   Clear
4:51 PM 33.8 °F 26.4 °F 6.8 °F 32% 30.06 in 10.0 mi WNW 9.2 mph 23.0 mph N/A   Clear
5:11 PM 33.8 °F 27.7 °F 6.8 °F 32% 30.06 in 10.0 mi NW 6.9 mph 20.7 mph N/A   Clear
5:31 PM 33.8 °F 23.9 °F 6.8 °F 32% 30.06 in 10.0 mi WNW 15.0 mph 24.2 mph N/A   Clear
5:51 PM 32.0 °F 22.5 °F 5.0 °F 32% 30.07 in 10.0 mi WNW 12.7 mph 20.7 mph N/A   Clear
6:11 PM 32.0 °F 23.0 °F 5.0 °F 32% 30.07 in 10.0 mi WNW 11.5 mph 25.3 mph N/A   Clear
6:31 PM 32.0 °F 22.5 °F 3.2 °F 30% 30.07 in 10.0 mi WNW 12.7 mph 24.2 mph N/A   Clear
6:51 PM 30.2 °F 22.6 °F 5.0 °F 34% 30.07 in 10.0 mi NW 8.1 mph - N/A   Clear
7:11 PM 30.2 °F 23.4 °F 5.0 °F 34% 30.07 in 10.0 mi WNW 6.9 mph 17.3 mph N/A   Clear
7:31 PM 28.4 °F 22.2 °F 5.0 °F 37% 30.07 in 10.0 mi WNW 5.8 mph - N/A   Clear
7:51 PM 28.4 °F 22.2 °F 5.0 °F 37% 30.07 in 10.0 mi WNW 5.8 mph - N/A   Clear
8:12 PM 28.4 °F 23.3 °F 5.0 °F 37% 30.08 in 10.0 mi NW 4.6 mph - N/A   Clear
8:31 PM 26.6 °F - 5.0 °F 40% 30.08 in 10.0 mi Calm Calm - N/A   Clear
8:51 PM 26.6 °F - 5.0 °F 40% 30.09 in 10.0 mi Calm Calm - N/A   Clear
9:12 PM 24.8 °F 20.5 °F 5.0 °F 43% 30.09 in 10.0 mi West 3.5 mph - N/A   Clear
9:31 PM 24.8 °F - 6.8 °F 46% 30.09 in 10.0 mi Calm Calm - N/A   Clear
9:51 PM 24.8 °F 17.9 °F 8.6 °F 50% 30.10 in 10.0 mi West 5.8 mph - N/A   Clear
10:12 PM 24.8 °F 16.9 °F 8.6 °F 50% 30.10 in 10.0 mi West 6.9 mph - N/A   Clear
10:31 PM 24.8 °F 16.9 °F 8.6 °F 50% 30.10 in 10.0 mi West 6.9 mph - N/A   Clear
10:51 PM 24.8 °F 16.9 °F 8.6 °F 50% 30.10 in 10.0 mi West 6.9 mph - N/A   Clear
11:12 PM 24.8 °F 19.1 °F 8.6 °F 50% 30.11 in 10.0 mi West 4.6 mph - N/A   Clear
11:31 PM 23.0 °F 14.7 °F 8.6 °F 54% 30.11 in 10.0 mi WNW 6.9 mph - N/A   Clear
11:51 PM 23.0 °F 17.0 °F 8.6 °F 54% 30.11 in 10.0 mi West 4.6 mph - N/A   Clear